This is the latest recevied weather packets stored in our database for station/object KB2EAR-13. If no packets are shown the sender has not sent any weather packets the latest 10 day(s).
| Time | Temp. | Humidity | Pressure | Rain* | Wind** | Luminosity | Snow |
|---|---|---|---|---|---|---|---|
| 1777568717 | 13.89° C | 80% | 1007.9 hPa | 0 mm | - | - | - |
| 1777568417 | 13.89° C | 79% | 1007.9 hPa | 0 mm | - | - | - |
| 1777567922 | 14.44° C | 80% | 1007.9 hPa | 0 mm | - | - | - |
| 1777566917 | 13.89° C | 82% | 1007.9 hPa | 0 mm | - | - | - |
| 1777566017 | 12.78° C | 86% | 1007.9 hPa | 0 mm | - | - | - |
| 1777565717 | 12.22° C | 86% | 1007.9 hPa | 0 mm | - | - | - |
| 1777565417 | 12.22° C | 86% | 1008.1 hPa | 0 mm | - | - | - |
| 1777565117 | 12.22° C | 86% | 1008.4 hPa | 0 mm | - | - | - |
| 1777564217 | 12.22° C | 87% | 1008.7 hPa | 0 mm | - | - | - |
| 1777563317 | 12.22° C | 87% | 1008.8 hPa | 0 mm | - | - | - |
| 1777563017 | 11.67° C | 88% | 1008.9 hPa | 0 mm | - | - | - |
| 1777562851 | 11.67° C | 88% | 1008.8 hPa | 0 mm | - | - | - |
| 1777562717 | 11.67° C | 88% | 1008.8 hPa | 0 mm | - | - | - |
| 1777562526 | 11.67° C | 89% | 1008.7 hPa | 0 mm | - | - | - |
| 1777562417 | 11.67° C | 89% | 1008.7 hPa | 0 mm | - | - | - |
| 1777562117 | 11.67° C | 90% | 1008.7 hPa | 0 mm | - | - | - |
| 1777561517 | 11.11° C | 90% | 1008.8 hPa | 0 mm | - | - | - |
| 1777561217 | 11.11° C | 90% | 1008.9 hPa | 0 mm | - | - | - |
| 1777560917 | 11.11° C | 91% | 1008.8 hPa | 0 mm | - | - | - |
| 1777560617 | 11.11° C | 91% | 1008.9 hPa | 0 mm | - | - | - |
| 1777560317 | 11.11° C | 91% | 1008.7 hPa | 0 mm | - | - | - |
| 1777559717 | 10.56° C | 92% | 1008.6 hPa | 0 mm | - | - | - |
| 1777559417 | 10.56° C | 93% | 1008.6 hPa | 0 mm | - | - | - |
| 1777559117 | 10.56° C | 93% | 1008.4 hPa | 0 mm | - | - | - |
| 1777558817 | 10.56° C | 93% | 1008.5 hPa | 0 mm | - | - | - |
* Rain latest hour (hover to see other rain measurements)
** Current wind speed in m/s (hover to see current wind gust speed)